EW0822 Weather Reports


time (UTC)temp
C
wind
direction
speed
KPH
gust
KPH
rain 1hr
cm
rain 24hr
cm
rain mn
cm
humidity
%
barometer
mb
20260905184502 17 216 0.0 0.0 0.00 0.00 0.00 65 1024.6
20260905183101 18 215 0.0 0.0 0.00 0.00 0.00 63 1024.4
20260905181609 18 211 0.0 16.1 0.00 0.00 0.00 62 1024.1
20260905180056 18 196 0.0 0.0 0.00 0.20 0.00 61 1023.9
20260905174555 19 227 0.0 0.0 0.00 0.20 0.00 60 1023.9
20260905173056 20 227 0.0 0.0 0.00 0.20 0.00 59 1023.6
20260905171552 20 247 0.0 0.0 0.00 0.20 0.00 59 1023.5
20260905170053 20 265 0.0 11.3 0.00 0.61 0.00 57 1023.3
20260905164547 21 234 0.0 20.9 0.00 0.61 0.00 54 1023.2
20260905163047 21 211 1.6 16.1 0.00 0.61 0.00 54 1023.0
20260905161543 21 198 0.0 1.6 0.00 0.61 0.00 55 1022.9
20260905160109 21 198 0.0 16.1 0.00 0.61 0.00 54 1022.8
20260905154545 21 178 0.0 11.3 0.00 0.61 0.00 54 1022.8
20260905153039 21 198 0.0 0.0 0.00 0.61 0.00 55 1022.5
20260905151538 21 198 0.0 19.3 0.00 0.61 0.00 55 1022.4
20260905150036 21 204 0.0 0.0 0.00 0.61 0.00 59 1022.3
20260905144534 21 197 0.0 0.0 0.00 0.61 0.00 60 1022.2
20260905143034 21 209 0.0 17.7 0.00 0.61 0.00 57 1022.3
20260905141540 21 197 0.0 0.0 0.00 0.61 0.00 57 1022.2
20260905140031 20 198 0.0 0.0 0.00 0.61 0.00 60 1022.2
20260905134535 20 184 0.0 19.3 0.00 0.61 0.00 58 1022.4
20260905133028 21 217 0.0 0.0 0.00 0.61 0.00 58 1022.1
20260905131526 21 196 0.0 0.0 0.00 0.61 0.00 58 1022.1
20260905130026 21 188 0.0 0.0 0.00 0.61 0.00 58 1022.0
20260905124536 21 184 0.0 3.2 0.00 0.61 0.00 58 1022.0
20260905123020 20 197 0.0 14.5 0.00 0.61 0.00 62 1021.9
20260905121517 20 195 0.0 12.9 0.00 0.61 0.00 61 1021.8
20260905120016 20 196 0.0 12.9 0.00 0.61 0.00 63 1021.7
20260905114515 20 219 0.0 0.0 0.00 0.61 0.00 63 1021.6
20260905113014 20 190 0.0 16.1 0.00 0.61 0.00 63 1021.6
20260905111513 20 202 0.0 16.1 0.00 0.61 0.00 64 1021.6
20260905110011 19 215 0.0 0.0 0.00 0.61 0.00 66 1021.7
20260905104509 18 202 0.0 0.0 0.00 0.61 0.00 68 1021.6
20260905103017 19 194 0.0 0.0 0.00 0.61 0.00 65 1021.5
20260905101505 19 189 0.0 0.0 0.00 0.61 0.00 68 1021.5
20260905100002 19 192 0.0 16.1 0.00 0.61 0.00 70 1021.4
20260905094559 18 196 0.0 0.0 0.00 0.61 0.00 71 1021.3
20260905093057 18 205 0.0 14.5 0.00 0.61 0.00 74 1021.3
20260905091617 17 198 0.0 0.0 0.00 0.61 0.00 76 1021.1
20260905090056 -17 0.0 0.0 0.00 0.61 0.00 1020.9
20260905084542 -17 0.0 0.0 0.00 0.61 0.00 1020.8
20260905083037 -17 0.0 0.0 0.00 0.61 0.00 1020.7
20260905081533 -17 0.0 0.0 0.00 0.61 0.00 1020.6
20260905080036 -17 0.0 0.0 0.00 0.61 0.00 1020.4
20260905074524 -17 0.0 0.0 0.00 0.61 0.00 1020.2
20260905073020 -17 0.0 0.0 0.00 0.61 0.00 1020.0
20260905071515 -17 0.0 0.0 0.00 0.61 0.00 1019.8
20260905070016 -17 0.0 0.0 0.00 0.61 0.00 1019.6
20260905064507 -17 0.0 0.0 0.00 0.61 0.00 1019.4
20260905063003 -17 0.0 0.0 0.00 0.61 0.00 1019.2
20260905061621 -17 0.0 0.0 0.00 0.61 0.00 1019.1
20260905060106 -17 0.0 0.0 0.00 0.61 0.00 1019.0
20260905054550 -17 0.0 0.0 0.00 0.61 0.00 1018.8
20260905053047 -17 0.0 0.0 0.00 0.61 0.00 1018.7
20260905051541 -17 0.0 0.0 0.00 0.61 0.00 1018.6
20260905050038 -17 0.0 0.0 0.00 0.61 0.00 1018.4
20260905044537 13 204 0.0 0.0 0.00 0.61 0.00 77 1018.2
20260905043032 13 204 0.0 0.0 0.00 0.61 0.00 77 1017.9
20260905041531 13 204 0.0 0.0 0.00 0.61 0.00 77 1017.7
20260905040031 13 204 0.0 0.0 0.00 0.61 0.00 77 1017.5
20260905034528 13 204 0.0 0.0 0.00 0.61 0.00 77 1017.3
20260905033032 13 204 0.0 0.0 0.00 0.61 0.00 77 1017.5
20260905031526 13 204 0.0 0.0 0.00 0.61 0.00 77 1017.5
20260905030035 13 204 0.0 0.0 0.00 0.61 0.00 77 1017.5
20260905024524 13 204 0.0 0.0 0.00 0.61 0.00 77 1017.4
20260905023026 13 204 0.0 0.0 0.00 0.61 0.00 77 1017.2
20260905021523 14 204 0.0 0.0 0.00 0.61 0.00 77 1017.1
20260905020018 14 204 0.0 0.0 0.00 0.61 0.00 77 1017.2
20260905014522 14 204 0.0 0.0 0.00 0.61 0.00 77 1017.0
20260905013014 15 204 0.0 0.0 0.00 0.61 0.00 76 1016.9
20260905011514 15 204 0.0 0.0 0.00 0.61 0.00 76 1017.0
20260905010016 15 204 0.0 0.0 0.00 0.61 0.00 76 1016.9
20260905004516 15 204 0.0 0.0 0.00 0.61 0.00 76 1016.7
20260905003013 15 204 0.0 0.0 0.00 0.61 0.00 76 1016.7
20260905001526 15 204 0.0 0.0 0.00 0.61 0.00 76 1016.8
20260905000005 15 204 0.0 0.0 0.00 0.61 0.00 76 1016.6
20260904234509 15 204 0.0 0.0 0.00 0.61 0.00 76 1016.6
20260904233007 15 204 0.0 0.0 0.00 0.61 0.00 76 1016.5
20260904231607 16 204 0.0 0.0 0.00 0.61 0.00 76 1016.2
20260904230107 16 204 0.0 0.0 0.00 0.61 0.00 76 1016.1
20260904224601 16 204 0.0 0.0 0.00 0.61 0.00 76 1016.1
20260904223127 16 204 0.0 0.0 0.00 0.61 0.00 76 1016.0
20260904221558 16 204 0.0 0.0 0.00 0.61 0.00 76 1015.9
20260904220053 16 204 0.0 0.0 0.00 0.61 0.61 76 1015.8
20260904214553 16 204 0.0 0.0 0.00 0.61 0.61 76 1015.9
20260904213052 16 204 0.0 0.0 0.00 0.61 0.61 76 1015.8
20260904211551 16 205 0.0 0.0 0.00 0.61 0.61 76 1015.6
20260904210101 16 205 0.0 0.0 0.00 0.61 0.61 76 1015.3
20260904204557 16 205 0.0 0.0 0.00 0.61 0.61 76 1015.5
20260904203100 16 205 0.0 0.0 0.00 0.61 0.61 76 1015.3
20260904201548 16 205 0.0 0.0 0.00 0.61 0.61 76 1015.1
20260904200149 16 205 0.0 0.0 0.00 0.61 0.61 76 1015.1
20260904194548 16 205 0.0 0.0 0.00 0.61 0.61 76 1015.1
20260904193100 16 205 0.0 0.0 0.00 0.61 0.61 76 1015.0
20260904191553 16 205 0.0 0.0 0.00 0.61 0.61 76 1014.9
20260904190045 16 205 0.0 0.0 0.00 0.61 0.61 75 1014.6